User: anonymous   Login
Location: *
(45.5667°S, 177.5167°W)
Time: 08:22:16
(UTC+00:00)
Language:

CZ-4B R/B - Orbit

View from above orbital plane
View from above orbital plane
View from above satellite
View from above satellite

Ground track
Ground track

The orbit data is extracted from the following two-line orbital elements,

1 37181U 10051C   22228.51599219  .00000374  00000-0  31877-4 0  9998
2 37181  97.8303 222.7330 0105037 188.4395 288.0633 14.99999331647469
Epoch (UTC): 16 August 2022 12:23:01
Eccentricity: 0.0105037
inclination: 97.8303°
perigee height: 494 km
apogee height: 640 km
right ascension of ascending node: 222.7330°
argument of perigee: 188.4395°
revolutions per day: 14.99999331
mean anomaly at epoch: 288.0633°
orbit number at epoch: 64746

The dashed part of the orbit path shows where the satellite is in the earth's shadow,  

DLR